RH
57 56 56 56 57 58 60 63 67 70 73 75 76 76 76 76 76 76 75 74 73 74 75 75 72 68 64 61 59 58 56 55 52 48 44 41 38 36 33 31 29 27 25 23 22 20 20 19 19 18 18 18 18 18 19 19 19 19 19 19 19 19 19 19 20 22 23 25 26
59 57 55 55 55 55 56 58 61 64 67 70 72 74 75 76 76 75 75 75 75 75 75 75 73 70 66 62 60 59 58 57 55 52 49 46 43 41 38 36 35 32 30 28 26 24 22 22 21 21 20 20 20 21 21 21 21 21 21 21 21 21 21 21 21 22 23 24 25
61 59 57 56 55 55 55 55 56 58 60 63 65 68 70 73 73 73 72 72 73 72 71 71 69 67 65 62 61 60 58 58 57 55 53 50 47 45 43 42 40 38 36 33 30 28 26 25 24 24 23 23 23 23 22 22 22 23 23 23 23 23 23 23 23 23 23 23 23
64 62 60 58 57 56 55 55 55 55 55 56 58 61 64 67 68 68 68 67 67 68 67 65 64 63 62 61 60 59 58 58 57 56 54 53 51 49 48 47 46 44 42 39 35 32 30 27 27 26 25 25 24 24 24 23 23 23 23 24 24 24 24 24 24 23 23 23 22
65 64 63 61 59 58 56 56 55 54 53 53 53 55 57 60 62 63 63 62 62 62 62 61 60 60 59 58 58 57 57 56 56 56 55 54 53 52 51 51 51 49 47 44 40 36 33 30 29 28 27 26 26 25 25 24 24 24 24 24 24 24 24 24 24 24 24 23 23
64 64 64 63 62 60 59 58 57 56 55 53 52 52 52 54 58 60 60 59 58 58 58 58 59 58 58 57 56 56 55 55 55 55 55 55 54 54 54 54 54 53 51 48 44 40 36 33 31 30 29 28 27 27 26 26 25 25 25 25 25 25 25 25 25 24 24 24 24
63 64 64 64 63 62 61 60 59 58 57 56 55 53 52 52 54 57 58 58 57 56 56 56 57 58 59 58 58 57 56 55 54 54 54 55 55 55 55 55 56 55 54 51 47 43 39 36 34 32 31 30 30 29 29 28 27 27 27 26 26 26 26 26 26 26 25 25 25
62 63 63 63 64 63 63 62 61 60 59 58 57 56 54 53 53 54 56 57 57 56 55 55 56 58 59 60 59 59 58 56 56 55 55 55 55 55 55 55 55 55 55 53 49 45 42 39 37 35 34 33 32 32 32 31 30 30 30 29 29 29 28 28 28 28 28 28 28
62 62 63 63 63 63 63 63 62 61 61 60 59 58 57 55 54 54 54 56 57 57 57 56 56 57 59 61 61 60 60 59 58 57 56 56 56 56 55 55 55 55 55 53 50 47 44 41 39 38 37 36 35 35 34 34 33 33 33 33 32 32 31 31 31 30 31 31 31
63 63 63 63 63 63 64 63 63 63 62 61 61 60 59 58 57 55 54 55 56 57 57 57 56 57 59 61 62 62 61 60 59 59 58 57 57 57 56 56 56 55 55 54 51 48 46 44 42 40 39 38 37 36 36 35 35 35 35 35 35 35 34 34 34 34 34 34 34
63 63 64 64 64 65 65 65 65 64 64 64 63 62 61 60 59 58 56 55 55 56 56 57 57 57 59 61 63 63 62 62 61 60 60 59 58 58 57 57 56 56 55 54 52 50 48 46 44 42 40 39 38 38 38 37 38 38 38 38 38 38 38 37 37 37 37 37 38
62 63 64 65 66 66 66 66 66 66 66 66 65 64 63 62 61 60 59 57 56 56 56 56 56 56 57 59 62 63 63 63 62 62 61 61 60 60 59 58 58 57 57 56 54 52 50 49 47 45 43 42 41 41 41 40 40 41 41 41 41 41 41 41 40 40 40 40 41
60 62 63 65 66 66 67 67 67 67 67 67 67 66 65 64 62 61 60 59 58 58 57 56 56 56 56 57 59 61 62 63 63 63 62 62 62 61 61 61 60 59 58 57 56 54 53 51 50 49 48 46 46 45 45 44 44 44 44 44 44 44 44 44 43 43 43 43 44
60 61 62 63 64 65 65 66 67 67 68 68 67 67 66 64 63 62 62 61 60 59 58 57 56 56 56 56 57 58 60 62 63 63 63 63 63 63 63 62 62 61 60 59 58 57 56 55 54 53 52 51 50 50 49 48 48 47 47 47 47 47 47 47 46 46 46 46 46
61 61 62 62 62 63 63 64 65 66 67 67 67 66 66 65 64 63 62 61 61 60 59 58 58 57 57 57 57 58 59 60 62 62 63 62 62 62 63 63 63 63 62 61 61 60 59 59 58 57 56 55 55 54 53 52 51 50 50 49 49 49 49 49 48 48 48 48 48
61 62 62 62 62 62 62 63 64 64 65 66 66 66 65 65 64 63 62 61 61 60 59 59 59 58 59 58 59 59 59 60 61 61 62 62 62 62 62 62 63 63 63 63 62 62 61 61 60 60 59 58 57 57 56 55 54 53 52 51 51 51 50 50 49 49 48 48 47
59 60 61 62 62 62 62 62 62 62 63 63 64 64 64 64 63 63 62 61 60 59 59 58 59 59 59 59 60 60 60 61 61 61 61 62 61 61 61 62 62 62 62 62 62 62 61 60 60 60 59 59 58 58 57 56 55 53 52 51 51 50 49 48 47 46 45 44 43
56 58 59 60 61 61 61 61 60 59 59 59 59 60 60 60 60 60 60 59 59 58 58 57 58 58 58 59 60 60 61 61 61 61 61 61 60 60 61 61 61 60 60 60 60 60 59 58 57 57 57 56 56 55 54 53 52 51 50 48 47 46 44 43 42 41 40 39 38
51 54 56 57 58 59 59 59 58 57 56 56 55 55 55 56 56 56 56 56 56 56 55 55 56 56 57 58 58 59 59 60 60 60 59 59 58 58 59 59 58 58 57 57 56 55 55 54 53 52 52 51 51 50 49 48 47 46 44 43 42 40 39 38 37 36 36 35 35
47 49 52 54 55 57 57 57 57 56 55 54 53 52 52 51 51 52 52 53 53 53 53 53 53 54 54 55 56 56 57 56 57 56 56 55 55 55 55 55 55 54 53 52 51 50 49 48 47 46 46 45 44 44 43 42 41 41 40 39 38 37 36 36 35 35 35 35 34
43 46 48 51 53 55 56 56 56 55 54 54 52 51 50 49 49 49 50 50 50 50 50 50 50 51 52 52 53 53 53 53 53 53 52 52 52 52 51 51 51 50 49 48 47 46 45 43 42 41 41 40 40 40 39 39 39 39 38 38 37 37 37 36 36 36 35 35 34
40 43 46 48 50 52 54 56 56 55 54 53 52 51 50 49 49 49 49 50 49 49 49 49 49 49 49 49 50 50 50 50 50 49 49 49 48 49 48 48 47 47 46 45 44 43 42 41 40 39 39 39 39 39 39 40 40 39 39 39 39 38 38 37 37 36 35 34 34
36 40 43 44 46 49 52 54 55 55 55 54 53 52 51 51 50 50 50 50 49 49 48 48 48 48 48 48 48 48 48 48 48 48 47 47 47 46 46 46 46 46 45 45 43 42 41 40 40 40 40 41 41 41 41 41 40 39 39 38 38 38 37 36 36 35 34 33 33
32 35 38 40 42 45 48 51 53 55 55 55 54 53 53 52 52 52 51 51 50 49 49 48 48 47 47 47 47 47 47 48 47 47 47 46 46 46 45 46 46 45 45 44 43 43 42 42 43 43 43 43 42 41 40 38 37 36 36 35 35 34 34 34 34 33 33 32 32
28 31 34 37 38 41 43 47 51 53 55 56 55 54 54 53 53 53 52 51 50 50 49 48 48 48 48 48 48 48 48 48 47 47 47 46 46 46 46 46 46 46 45 45 44 44 45 45 45 45 43 41 39 36 35 34 33 33 33 33 33 32 33 33 33 32 32 31 31
24 27 30 33 35 37 39 43 47 50 53 55 55 55 55 54 53 53 52 52 51 50 49 48 48 48 48 49 49 49 49 49 48 48 47 47 47 47 47 47 47 46 46 47 47 47 47 46 44 41 38 35 32 31 31 31 33 33 33 33 33 33 32 32 32 31 31 30 29
22 23 25 28 30 32 34 37 41 45 48 51 52 53 53 53 53 53 53 52 51 50 49 48 48 48 49 49 50 50 50 50 50 49 49 49 48 48 48 48 48 48 48 49 49 48 46 42 38 34 31 29 29 31 32 35 36 36 36 35 34 33 32 30 30 29 29 29 28
23 22 22 23 26 27 29 31 34 38 42 46 49 50 51 51 52 52 52 52 52 51 50 49 49 49 49 49 50 51 51 51 51 51 51 51 51 50 50 50 50 51 50 50 48 44 39 34 30 27 27 28 30 33 35 37 37 37 36 34 33 31 30 28 27 27 26 26 25
26 25 23 22 23 24 25 27 29 32 35 40 43 46 48 50 51 52 53 53 53 53 52 51 50 50 50 50 51 52 52 53 53 53 53 53 53 53 53 53 52 51 49 45 41 35 30 26 24 24 25 27 30 31 33 33 33 33 31 30 29 27 26 25 24 24 23 22 21
28 28 27 25 24 23 24 24 26 28 30 34 38 42 45 47 49 51 52 53 54 54 53 53 52 52 52 52 53 53 54 54 54 54 54 55 54 55 54 53 50 46 41 36 31 27 23 21 20 21 22 24 25 25 26 26 26 25 25 24 23 22 22 21 21 20 19 18 17
29 29 30 29 28 26 25 25 26 27 28 30 33 36 40 43 46 48 50 52 53 54 54 54 54 53 53 54 54 55 55 54 54 54 54 54 53 52 51 48 42 36 31 27 23 20 18 17 17 18 18 18 18 18 19 19 19 19 19 19 19 19 19 19 18 17 17 16 15
29 29 30 31 31 31 30 29 29 28 28 28 30 32 34 38 41 44 46 48 49 50 51 52 52 52 52 53 53 53 53 53 53 52 51 50 48 45 40 35 30 25 22 19 16 15 14 14 14 14 13 13 13 13 14 14 15 16 17 18 18 18 18 17 17 16 15 14 14
29 28 28 30 31 33 33 33 33 31 30 28 28 29 30 33 36 38 41 42 43 44 45 46 46 47 48 49 49 50 50 50 49 47 44 41 37 32 27 22 19 17 15 13 12 12 11 11 11 10 10 11 11 12 13 15 16 17 18 18 18 17 17 16 16 15 14 13 12
30 29 28 28 29 31 33 35 34 33 31 29 28 27 28 29 31 33 34 35 35 35 36 37 38 39 41 42 43 43 43 43 41 37 33 29 24 20 17 14 13 13 12 11 10 10 10 9 9 10 11 12 13 15 16 18 19 19 19 19 18 17 16 16 15 14 13 12 11
32 31 29 28 28 29 31 33 33 33 31 29 28 27 28 28 28 29 29 29 28 27 27 28 29 31 32 34 35 35 35 33 30 27 23 19 16 14 13 11 11 11 11 10 10 10 10 11 11 13 14 16 18 19 20 21 21 20 19 18 18 17 16 15 14 13 12 12 11
34 34 32 30 28 28 28 29 30 30 29 27 27 27 28 29 29 28 28 26 24 23 22 21 22 23 24 26 27 27 26 24 22 19 17 15 14 13 12 11 11 11 11 11 12 12 13 14 16 18 19 21 22 22 22 22 21 20 18 17 16 15 14 13 13 12 12 12 12
36 35 35 33 31 28 27 26 26 26 25 25 26 27 28 30 31 30 29 27 24 22 20 19 19 19 19 20 20 20 20 19 18 16 15 14 13 13 13 12 12 13 13 14 15 17 18 20 21 23 24 24 24 23 22 21 19 18 17 16 15 14 13 12 12 12 12 12 13
37 36 36 35 34 31 28 25 24 23 23 24 25 27 30 32 33 33 32 29 26 23 21 19 19 19 19 19 19 19 19 19 18 17 16 16 15 15 15 15 15 16 17 19 21 22 24 25 26 26 26 25 23 22 20 19 18 16 15 14 13 13 12 12 12 13 13 14 14
37 37 37 36 36 34 31 27 24 23 23 25 27 30 33 35 36 35 34 31 28 25 23 22 22 22 22 22 22 22 22 22 21 20 19 19 19 19 20 20 21 22 23 24 26 27 28 28 27 26 25 23 22 20 19 17 16 15 14 13 13 13 13 13 14 14 14 15 15
38 38 38 37 36 36 34 32 28 27 27 28 31 33 36 37 37 36 34 32 29 26 25 25 25 25 26 26 26 26 26 26 24 23 23 23 24 25 25 27 27 28 28 29 30 30 29 27 26 24 22 21 19 18 17 15 14 14 13 13 13 14 14 15 15 15 16 16 16
38 38 38 37 37 37 37 37 35 34 33 33 34 35 36 37 37 36 34 32 29 28 27 27 28 29 29 31 31 31 30 29 28 28 28 28 29 30 31 32 32 32 31 31 30 29 27 25 23 21 20 19 17 16 15 14 14 14 14 14 15 15 16 16 16 17 17 17 17